Wind_Speed
38 38 39 39 39 40 41 42 42 41 42 43 42 40 40 40 39 38 37 37 37 38 38 38 39 39 39 39 39 39 39 40 40 41 41 42 42 43 44 45 46 46 46
42 42 42 43 43 43 44 44 45 44 44 45 44 43 42 41 39 39 38 38 38 39 39 40 40 40 40 39 40 40 41 41 42 42 43 44 44 45 46 48 49 49 49
46 46 46 47 47 47 47 47 47 48 47 47 47 46 44 42 40 40 39 39 39 39 40 40 40 41 40 40 41 41 42 42 43 44 45 46 47 47 48 49 50 50 51
50 50 51 51 51 50 51 50 50 50 51 50 49 47 46 44 42 41 40 40 39 39 39 40 41 41 41 41 41 42 41 42 43 44 45 47 49 50 50 50 51 51 52
53 54 55 55 55 54 54 53 53 52 53 53 50 48 48 46 44 43 41 40 40 40 40 40 41 41 41 42 42 41 42 43 44 45 46 48 50 51 52 51 51 53 54
54 54 55 56 56 57 57 56 55 54 53 53 51 50 49 48 46 44 42 41 41 40 40 40 40 41 41 41 42 42 43 44 46 46 48 50 51 52 53 53 53 53 55
54 54 54 54 55 56 57 57 56 55 54 52 51 51 50 49 47 46 44 42 41 40 40 40 40 40 40 41 41 42 44 46 47 48 49 51 52 53 54 56 57 57 57
52 52 52 53 54 55 56 57 56 55 54 52 51 51 50 49 48 46 44 43 42 41 40 40 39 39 39 40 41 43 45 47 48 49 50 51 53 54 56 58 60 61 61
52 52 52 52 51 52 54 55 55 54 53 52 51 50 49 49 48 46 44 43 42 41 40 39 39 39 40 41 42 44 46 48 49 50 51 52 54 56 58 60 63 65 66
52 52 51 51 50 50 51 53 53 53 52 52 51 49 48 48 47 45 44 43 41 40 39 39 39 39 40 42 43 45 47 48 49 51 52 54 56 58 60 62 65 67 70
51 50 50 49 48 48 49 50 51 51 51 50 49 48 47 46 45 44 43 42 40 39 39 39 39 40 41 43 45 46 48 49 50 52 54 56 58 60 62 65 67 69 71
48 47 46 45 44 44 44 45 47 49 49 48 46 46 45 44 43 43 42 41 40 39 38 39 39 41 42 44 46 47 48 50 52 54 56 58 60 63 65 67 69 71 72
44 42 39 39 38 39 40 41 43 45 45 44 43 43 43 42 41 41 40 39 39 38 38 39 41 42 43 45 47 48 50 51 54 56 58 60 63 65 67 69 70 72 73
37 34 32 32 31 33 35 36 39 41 40 40 40 40 40 40 39 39 38 38 37 38 38 40 42 43 44 46 48 49 51 53 56 58 60 63 65 67 68 70 71 73 74
27 23 21 22 24 27 29 32 35 36 37 37 37 37 37 36 36 36 36 36 36 37 38 40 42 44 46 47 49 50 53 55 57 60 62 64 66 68 69 71 72 74 78
14 10 10 13 18 21 25 29 32 33 34 34 33 33 33 33 33 33 33 34 35 37 39 41 43 45 46 48 49 52 54 57 59 61 63 65 67 68 69 72 75 79 84
5 1 5 11 15 20 24 26 28 29 29 29 28 29 29 29 30 30 31 33 35 37 39 41 43 44 46 48 50 53 56 58 60 62 64 65 67 69 71 74 79 84 90
8 8 10 13 16 19 22 23 24 24 24 24 24 24 24 25 27 28 30 32 35 37 40 41 43 44 47 49 52 55 57 59 61 63 64 66 69 72 75 79 84 89 92
13 15 16 17 18 19 20 20 20 19 18 18 18 19 20 22 25 27 30 33 35 37 39 41 43 45 48 51 53 55 57 59 61 63 66 69 72 76 81 85 88 89 87
18 17 18 18 18 18 17 16 16 15 14 15 16 18 20 22 25 27 30 32 35 36 39 41 44 46 49 52 54 56 58 59 61 64 68 73 77 81 85 87 87 82 74
16 16 16 15 15 15 14 13 12 12 12 13 15 17 20 23 25 27 30 32 34 37 39 42 45 48 50 52 55 57 59 61 63 67 72 76 81 83 85 84 79 70 60
12 13 13 12 12 12 11 11 11 11 12 14 17 19 21 23 25 27 29 32 34 37 40 43 46 48 51 53 55 57 60 64 67 71 75 79 81 82 80 75 66 56 49
7 8 9 8 8 9 9 9 10 12 13 14 16 18 19 21 24 27 29 33 36 39 41 44 46 49 51 54 56 59 63 67 71 74 77 79 80 77 71 62 53 46 42
5 5 6 6 5 5 6 7 7 8 9 11 14 16 19 22 25 28 31 34 37 40 42 44 47 49 52 55 59 62 66 69 72 75 77 78 74 67 57 48 43 39 37
3 3 2 2 2 2 3 4 6 7 10 12 15 18 21 24 27 30 33 36 38 40 43 45 48 51 54 57 61 64 67 70 73 75 75 70 62 52 44 39 36 34 34
1 1 0 1 1 2 3 5 7 10 12 15 18 20 23 26 29 32 34 37 39 41 44 47 50 53 56 60 64 68 71 73 74 72 67 58 48 39 34 32 32 32 34
Wind_Direction
263 264 264 263 262 262 261 260 260 259 259 260 261 263 263 264 264 265 267 268 270 273 275 277 279 279 278 278 277 276 277 277 278 278 280 282 284 287 288 289 289 290 291
264 265 265 264 264 262 261 259 258 257 257 258 258 259 260 262 264 264 266 268 270 272 274 277 278 278 278 279 278 277 278 279 279 280 281 282 285 287 289 290 290 291 292
265 265 265 265 264 263 261 259 257 256 255 254 255 256 258 261 263 264 265 267 270 272 274 277 278 278 278 279 280 279 279 280 280 281 283 284 286 287 288 289 290 292 294
266 266 265 264 264 263 261 259 256 254 253 252 253 254 256 258 260 262 264 266 269 272 274 277 278 279 279 280 281 281 281 282 282 283 285 287 288 289 290 290 291 293 294
267 266 265 264 262 261 260 258 256 253 252 251 251 251 252 254 257 260 263 265 268 270 274 276 278 278 279 280 282 283 284 285 285 286 287 289 289 290 291 292 293 295 296
269 268 266 264 262 260 258 257 255 253 251 250 248 248 249 252 254 257 260 263 266 269 272 275 277 278 279 282 283 285 286 287 288 289 290 291 291 291 292 292 293 295 296
275 272 268 265 261 258 256 254 253 251 250 249 246 246 247 249 251 255 258 261 265 268 271 274 277 279 281 283 285 287 288 289 290 291 292 292 292 293 294 295 296 296 297
279 277 273 267 262 257 255 252 250 249 247 246 245 244 244 246 249 253 256 260 263 267 271 274 276 279 282 285 286 288 290 291 292 293 293 294 294 295 296 297 298 298 299
281 279 275 270 262 256 252 250 248 246 244 242 242 241 241 243 247 250 254 257 261 265 270 274 277 280 283 285 287 289 290 292 293 293 294 294 296 297 298 299 300 300 300
285 281 277 271 262 255 250 246 244 242 240 239 238 238 238 240 244 248 252 256 260 264 268 273 277 281 284 286 288 290 291 293 293 294 295 296 297 298 300 301 301 302 302
287 283 277 271 261 253 248 243 240 237 235 235 235 235 235 238 242 246 251 255 259 263 268 273 278 282 285 287 289 291 292 293 294 295 296 297 299 300 301 302 302 303 303
288 283 276 268 258 249 242 237 234 231 229 229 231 232 233 236 240 245 250 254 258 263 269 274 278 283 286 288 290 292 293 294 295 297 298 299 300 301 302 303 303 304 304
288 282 274 264 252 243 235 230 226 223 222 223 225 228 230 234 239 244 249 254 260 265 271 276 280 284 287 289 291 292 294 295 296 298 299 301 302 303 304 304 305 305 305
290 282 271 258 245 235 228 223 217 214 215 217 220 223 228 233 239 245 251 256 262 267 273 278 282 286 288 289 291 293 295 296 298 299 301 302 303 304 305 305 306 306 306
293 282 267 250 234 223 219 212 206 205 207 211 216 221 227 233 240 246 252 258 264 271 276 281 284 287 288 290 292 294 296 298 299 301 302 303 304 305 306 306 307 307 307
304 283 247 225 212 205 202 196 195 198 202 208 213 220 228 234 241 248 255 262 268 273 279 282 285 287 288 291 293 295 297 299 301 302 303 304 305 306 307 307 308 308 308
358 90 164 171 176 180 182 184 187 192 198 205 212 221 229 237 245 253 259 266 271 276 280 282 285 287 290 292 294 297 299 301 302 303 304 305 306 307 307 308 308 309 309
66 100 129 144 155 163 168 173 179 185 194 203 212 223 232 241 250 257 265 270 274 277 280 283 286 289 292 294 297 299 301 302 304 305 306 306 307 307 308 308 309 309 310
82 99 113 127 140 149 156 163 172 181 191 202 215 226 237 247 255 261 266 271 275 278 282 285 289 292 295 297 299 301 303 304 306 306 307 307 307 308 308 309 310 310 310
81 95 106 116 126 133 142 153 163 174 189 206 221 233 242 251 257 263 269 273 277 282 286 290 293 295 298 300 302 303 305 306 307 307 308 308 308 309 309 310 311 311 311
86 95 105 114 123 131 140 151 167 183 200 216 230 242 249 255 262 268 273 278 283 288 291 294 296 299 301 303 305 306 307 307 308 308 308 309 309 310 311 312 313 313 312
90 101 108 117 129 141 153 165 179 194 212 225 236 246 254 262 269 275 280 285 289 292 295 298 300 302 304 305 306 307 308 309 309 310 310 311 311 312 313 314 314 314 314
91 106 116 129 143 156 171 187 202 218 230 239 249 258 266 273 279 284 288 292 294 297 299 301 303 305 306 307 308 309 310 310 311 312 312 313 313 314 314 315 315 315 315
87 104 117 128 146 167 185 202 220 236 249 261 269 275 280 285 289 292 294 296 298 300 302 304 306 307 308 309 310 311 312 312 313 314 314 315 315 315 315 315 316 316 317
80 83 96 121 167 200 223 240 255 267 274 280 285 288 290 292 295 296 298 300 302 304 306 307 308 310 311 312 313 313 313 314 314 315 315 316 317 317 317 318 319 319 320
128 140 228 249 249 261 275 282 286 289 291 293 294 295 296 298 300 301 303 305 306 308 309 310 312 313 314 315 315 315 315 315 316 316 317 318 318 318 319 321 323 324 324
Height
5739 5740 5742 5744 5745 5747 5748 5749 5751 5753 5754 5755 5757 5759 5760 5761 5763 5765 5766 5767 5767 5767 5767 5767 5767 5766 5766 5765 5765 5764 5763 5763 5762 5761 5760 5759 5757 5755 5753 5750 5748 5746 5743
5729 5730 5732 5733 5735 5737 5738 5740 5741 5743 5745 5747 5749 5750 5751 5753 5755 5757 5759 5759 5759 5760 5760 5759 5759 5759 5758 5758 5757 5756 5755 5754 5753 5752 5751 5750 5749 5746 5743 5740 5737 5734 5731
5718 5719 5721 5722 5724 5726 5727 5729 5731 5732 5735 5737 5738 5741 5743 5745 5747 5749 5751 5751 5752 5752 5752 5752 5751 5751 5750 5750 5749 5748 5747 5746 5744 5742 5741 5739 5737 5736 5734 5730 5727 5723 5719
5706 5707 5708 5710 5711 5713 5715 5717 5719 5721 5723 5726 5729 5732 5735 5737 5739 5741 5742 5743 5744 5744 5744 5744 5743 5743 5742 5742 5740 5739 5738 5736 5735 5733 5730 5728 5725 5723 5722 5719 5715 5712 5708
5692 5693 5694 5696 5697 5699 5701 5704 5706 5709 5711 5715 5719 5723 5725 5728 5730 5732 5734 5735 5736 5736 5736 5736 5736 5735 5734 5733 5732 5730 5729 5727 5725 5723 5721 5718 5715 5711 5709 5708 5704 5700 5695
5677 5678 5678 5680 5682 5684 5686 5689 5692 5695 5699 5703 5709 5712 5715 5719 5722 5724 5725 5727 5728 5728 5728 5728 5728 5727 5726 5725 5723 5721 5720 5717 5715 5712 5710 5707 5703 5700 5697 5694 5692 5688 5683
5660 5661 5662 5663 5665 5667 5670 5673 5677 5682 5686 5691 5697 5701 5705 5709 5712 5715 5717 5718 5719 5720 5720 5720 5720 5719 5718 5716 5714 5712 5710 5708 5705 5702 5699 5695 5691 5688 5683 5680 5676 5673 5670
5643 5643 5644 5645 5648 5650 5653 5657 5662 5667 5673 5678 5684 5689 5695 5699 5703 5706 5708 5710 5711 5712 5712 5712 5711 5710 5709 5707 5705 5703 5701 5698 5695 5691 5688 5684 5679 5675 5670 5665 5661 5657 5654
5627 5626 5626 5627 5629 5633 5637 5641 5647 5653 5659 5665 5672 5678 5684 5689 5693 5696 5699 5701 5702 5703 5704 5704 5703 5702 5700 5698 5696 5694 5691 5688 5684 5680 5676 5672 5667 5662 5657 5651 5645 5639 5635
5609 5607 5607 5608 5611 5615 5619 5624 5631 5639 5646 5653 5660 5667 5674 5679 5683 5687 5690 5692 5694 5695 5696 5695 5695 5694 5692 5690 5687 5684 5681 5677 5673 5669 5665 5660 5655 5649 5643 5637 5630 5622 5616
5591 5588 5588 5589 5592 5596 5602 5608 5615 5624 5632 5641 5650 5657 5664 5669 5674 5678 5682 5684 5686 5687 5687 5687 5686 5685 5683 5680 5677 5674 5670 5666 5662 5657 5653 5647 5642 5635 5628 5621 5614 5606 5598
5574 5571 5571 5571 5574 5580 5586 5593 5601 5610 5621 5631 5640 5648 5654 5660 5666 5670 5673 5676 5678 5679 5679 5679 5678 5676 5674 5671 5667 5664 5659 5655 5650 5645 5640 5634 5628 5621 5613 5606 5598 5589 5580
5559 5556 5555 5556 5559 5565 5573 5580 5589 5600 5612 5622 5631 5639 5646 5653 5658 5662 5666 5668 5670 5671 5671 5670 5669 5667 5664 5661 5657 5653 5648 5643 5638 5633 5627 5620 5613 5605 5598 5589 5581 5572 5562
5547 5543 5542 5543 5548 5555 5563 5571 5581 5593 5605 5615 5624 5632 5639 5646 5651 5655 5659 5661 5663 5663 5663 5662 5660 5657 5654 5651 5647 5642 5637 5632 5626 5619 5613 5605 5598 5590 5582 5573 5563 5554 5544
5538 5535 5534 5536 5542 5549 5557 5567 5577 5589 5600 5610 5618 5627 5634 5640 5645 5649 5652 5654 5655 5655 5655 5653 5651 5648 5644 5640 5636 5631 5625 5619 5613 5606 5598 5591 5582 5574 5565 5556 5546 5536 5525
5535 5532 5533 5535 5541 5548 5556 5566 5576 5587 5597 5606 5615 5623 5630 5635 5640 5643 5646 5647 5648 5648 5646 5644 5642 5638 5634 5630 5625 5619 5613 5607 5600 5592 5584 5576 5567 5558 5549 5539 5528 5516 5504
5536 5535 5536 5538 5544 5551 5559 5568 5578 5587 5597 5605 5613 5620 5626 5631 5635 5638 5640 5641 5641 5639 5638 5635 5632 5628 5624 5619 5613 5608 5601 5594 5586 5578 5570 5561 5551 5542 5532 5522 5511 5497 5481
5542 5541 5542 5545 5550 5557 5564 5573 5581 5589 5597 5605 5612 5618 5623 5627 5630 5632 5634 5634 5633 5631 5629 5626 5622 5618 5613 5607 5602 5595 5588 5580 5572 5563 5554 5545 5535 5525 5515 5505 5493 5478 5463
5549 5549 5550 5553 5558 5564 5571 5577 5585 5592 5599 5605 5611 5616 5620 5623 5626 5627 5627 5626 5625 5623 5620 5616 5612 5607 5602 5596 5589 5582 5575 5567 5558 5549 5539 5529 5519 5508 5497 5486 5474 5460 5444
5559 5559 5560 5563 5567 5572 5577 5583 5588 5594 5600 5605 5610 5613 5617 5619 5620 5620 5620 5619 5617 5614 5610 5606 5601 5596 5590 5583 5577 5569 5562 5554 5545 5535 5524 5512 5501 5489 5476 5464 5452 5439 5426
5569 5569 5570 5572 5575 5578 5583 5587 5592 5596 5601 5605 5608 5611 5613 5614 5614 5614 5613 5611 5608 5604 5600 5596 5591 5585 5578 5571 5563 5555 5547 5539 5530 5519 5508 5495 5482 5469 5455 5442 5430 5418 5409
5576 5577 5578 5579 5582 5584 5587 5591 5594 5598 5601 5604 5606 5608 5609 5609 5608 5607 5605 5602 5599 5595 5590 5585 5579 5573 5566 5558 5550 5542 5533 5523 5513 5502 5490 5477 5463 5449 5436 5423 5412 5403 5395
5582 5582 5583 5584 5586 5588 5591 5593 5596 5598 5600 5602 5603 5604 5604 5603 5602 5600 5597 5594 5590 5585 5580 5575 5568 5561 5554 5546 5537 5528 5518 5507 5496 5484 5471 5458 5444 5431 5419 5408 5399 5392 5385
5586 5586 5587 5588 5589 5591 5592 5594 5596 5597 5599 5599 5600 5599 5598 5597 5595 5592 5589 5585 5581 5576 5570 5564 5557 5550 5541 5533 5524 5513 5502 5491 5479 5466 5453 5439 5427 5415 5405 5397 5390 5383 5376
5588 5588 5589 5590 5591 5592 5593 5594 5595 5595 5596 5595 5595 5594 5592 5590 5587 5584 5580 5576 5571 5565 5560 5553 5546 5538 5529 5519 5509 5498 5487 5476 5464 5451 5437 5424 5413 5403 5395 5388 5382 5375 5369
5589 5589 5590 5590 5591 5591 5592 5592 5593 5592 5592 5591 5590 5588 5586 5583 5580 5576 5571 5566 5561 5555 5549 5541 5534 5525 5516 5506 5495 5483 5471 5458 5446 5434 5422 5411 5402 5394 5388 5382 5375 5369 5363